Temp
-28 -28 -27 -26 -26 -25 -25 -25 -24 -24 -24 -25 -25 -25 -26 -26 -26 -26 -25 -25 -25 -26 -26 -26 -26 -26 -25 -24 -23 -22 -22 -21 -20 -19 -19 -18 -18 -17 -16 -16 -16 -15 -15 -15 -15 -15 -14 -14 -14 -14 -14 -14 -14 -14
-29 -28 -28 -27 -26 -26 -25 -25 -25 -24 -24 -25 -25 -25 -26 -25 -26 -26 -26 -26 -26 -27 -27 -26 -26 -26 -25 -25 -24 -23 -22 -21 -20 -20 -19 -19 -18 -17 -17 -17 -17 -16 -15 -15 -15 -14 -14 -14 -14 -13 -14 -15 -15 -14
-29 -29 -28 -28 -27 -27 -26 -25 -25 -25 -25 -25 -26 -26 -26 -26 -26 -26 -26 -26 -27 -27 -27 -27 -27 -26 -26 -25 -25 -24 -23 -22 -22 -21 -20 -20 -19 -18 -17 -16 -16 -17 -16 -15 -15 -14 -15 -15 -14 -15 -15 -15 -15 -14
-29 -29 -29 -28 -28 -28 -27 -26 -26 -25 -25 -25 -26 -27 -27 -27 -27 -27 -27 -27 -27 -27 -27 -27 -27 -27 -27 -26 -25 -24 -24 -23 -22 -21 -21 -20 -19 -19 -18 -17 -17 -16 -15 -15 -15 -15 -15 -15 -16 -15 -16 -16 -16 -15
-29 -29 -29 -29 -28 -28 -28 -28 -26 -26 -26 -26 -27 -27 -27 -27 -27 -27 -27 -27 -27 -28 -27 -27 -27 -27 -27 -27 -27 -25 -24 -23 -22 -21 -21 -20 -19 -19 -18 -18 -17 -17 -16 -15 -14 -16 -16 -15 -16 -17 -16 -16 -16 -16
-30 -29 -29 -29 -29 -29 -29 -28 -27 -27 -27 -27 -27 -28 -28 -27 -27 -27 -27 -27 -28 -28 -28 -28 -28 -28 -28 -27 -27 -26 -24 -23 -23 -21 -21 -21 -20 -19 -19 -18 -17 -18 -17 -17 -16 -17 -17 -16 -16 -16 -16 -17 -17 -16
-29 -30 -30 -29 -29 -29 -29 -29 -28 -28 -27 -27 -27 -28 -27 -28 -28 -28 -28 -28 -28 -28 -28 -28 -28 -28 -28 -28 -28 -26 -24 -24 -23 -22 -22 -21 -20 -19 -19 -18 -18 -18 -17 -17 -17 -17 -17 -17 -17 -18 -18 -18 -17 -17
-28 -30 -30 -30 -29 -29 -29 -29 -28 -28 -28 -28 -28 -28 -28 -28 -28 -28 -28 -29 -29 -28 -28 -29 -28 -28 -28 -28 -27 -26 -24 -23 -23 -23 -22 -22 -21 -20 -20 -19 -19 -18 -17 -18 -17 -18 -18 -18 -18 -18 -18 -18 -18 -18
-28 -29 -30 -30 -30 -29 -30 -29 -29 -29 -28 -28 -28 -28 -28 -28 -28 -28 -29 -29 -29 -28 -28 -28 -28 -28 -28 -27 -26 -25 -24 -23 -23 -23 -23 -22 -21 -21 -20 -20 -19 -19 -18 -18 -18 -19 -18 -18 -18 -18 -19 -19 -19 -19
-27 -29 -29 -30 -31 -30 -30 -30 -29 -29 -29 -28 -28 -28 -28 -28 -28 -28 -28 -28 -28 -28 -28 -27 -27 -27 -27 -26 -26 -25 -25 -24 -23 -23 -22 -22 -21 -21 -21 -20 -19 -19 -19 -19 -18 -18 -18 -19 -20 -20 -20 -20 -20 -20
-26 -27 -29 -30 -30 -31 -30 -30 -30 -30 -29 -29 -28 -28 -28 -28 -28 -28 -28 -28 -28 -28 -27 -27 -27 -26 -26 -26 -25 -25 -24 -24 -23 -23 -23 -22 -21 -21 -21 -21 -21 -19 -19 -19 -20 -20 -20 -20 -20 -20 -20 -20 -20 -20
-25 -26 -27 -29 -30 -30 -31 -31 -30 -30 -30 -29 -29 -29 -29 -28 -28 -28 -28 -28 -28 -27 -27 -27 -26 -26 -26 -26 -26 -25 -25 -25 -23 -24 -23 -23 -22 -22 -22 -22 -22 -21 -21 -20 -20 -21 -21 -21 -21 -21 -21 -21 -21 -21
-25 -25 -26 -27 -29 -31 -31 -31 -31 -30 -30 -30 -30 -29 -28 -29 -28 -29 -28 -28 -28 -27 -27 -26 -26 -26 -26 -25 -25 -25 -24 -24 -24 -23 -23 -22 -22 -22 -23 -23 -23 -22 -22 -21 -21 -21 -21 -21 -21 -21 -21 -21 -21 -21
-25 -25 -25 -25 -26 -29 -31 -31 -31 -30 -30 -30 -30 -30 -29 -28 -28 -28 -28 -28 -28 -27 -27 -27 -26 -26 -25 -25 -25 -24 -24 -24 -24 -23 -23 -23 -23 -23 -23 -23 -22 -22 -22 -22 -22 -22 -21 -21 -22 -22 -21 -22 -22 -22
-25 -25 -25 -25 -25 -25 -27 -31 -31 -30 -30 -30 -30 -30 -29 -29 -28 -28 -28 -28 -28 -27 -27 -27 -26 -26 -25 -25 -25 -25 -24 -24 -24 -23 -23 -23 -23 -23 -23 -23 -23 -23 -23 -23 -23 -23 -23 -22 -22 -22 -22 -22 -22 -22
-25 -25 -25 -25 -25 -26 -28 -30 -30 -30 -30 -30 -30 -30 -30 -30 -29 -29 -29 -28 -28 -28 -27 -27 -26 -26 -26 -25 -25 -25 -24 -24 -24 -24 -23 -23 -23 -23 -23 -23 -23 -23 -22 -22 -23 -23 -23 -23 -23 -23 -23 -23 -23 -23
-26 -26 -25 -26 -26 -26 -28 -29 -30 -30 -30 -30 -30 -31 -30 -30 -30 -30 -29 -29 -29 -29 -29 -28 -28 -27 -26 -26 -26 -26 -25 -25 -24 -24 -24 -24 -23 -23 -23 -23 -24 -24 -24 -24 -23 -23 -23 -23 -23 -23 -23 -24 -23 -23
-26 -26 -26 -26 -26 -26 -27 -29 -30 -30 -30 -30 -30 -30 -30 -30 -30 -30 -30 -30 -30 -30 -30 -30 -29 -29 -28 -27 -27 -27 -26 -26 -25 -25 -24 -24 -24 -24 -25 -25 -25 -25 -25 -25 -25 -24 -24 -24 -24 -24 -24 -23 -24 -24
-26 -26 -26 -26 -26 -26 -27 -28 -29 -30 -31 -31 -31 -31 -31 -31 -31 -31 -31 -30 -30 -30 -30 -30 -30 -30 -30 -29 -28 -28 -28 -27 -27 -26 -26 -25 -25 -25 -25 -25 -25 -25 -25 -25 -25 -25 -24 -24 -24 -25 -25 -25 -25 -25
-26 -26 -26 -27 -26 -27 -27 -27 -28 -29 -30 -31 -31 -31 -31 -31 -31 -31 -31 -31 -31 -31 -31 -30 -30 -30 -30 -30 -30 -30 -30 -29 -29 -28 -28 -27 -26 -26 -26 -26 -26 -26 -26 -25 -25 -26 -26 -26 -26 -26 -26 -26 -26 -26
-26 -26 -26 -27 -27 -27 -27 -27 -27 -28 -29 -30 -31 -31 -31 -32 -32 -32 -31 -31 -31 -31 -31 -31 -31 -31 -30 -30 -30 -30 -30 -30 -30 -30 -29 -29 -29 -28 -28 -28 -27 -27 -27 -27 -27 -27 -27 -27 -27 -27 -27 -27 -28 -28
-26 -26 -27 -27 -27 -27 -27 -27 -27 -27 -28 -29 -30 -30 -31 -31 -31 -31 -32 -31 -31 -32 -31 -31 -31 -30 -30 -30 -30 -30 -30 -30 -30 -30 -30 -29 -29 -29 -29 -29 -29 -29 -28 -28 -28 -28 -28 -28 -28 -28 -29 -28 -29 -29
-27 -27 -27 -27 -27 -27 -27 -27 -27 -27 -27 -28 -29 -29 -31 -31 -31 -31 -31 -32 -32 -32 -31 -31 -31 -31 -31 -31 -31 -31 -30 -30 -30 -30 -30 -30 -30 -30 -30 -30 -30 -29 -29 -29 -29 -29 -29 -29 -29 -29 -29 -29 -29 -29
-27 -27 -27 -27 -27 -27 -27 -28 -28 -27 -28 -28 -28 -29 -30 -31 -31 -31 -32 -32 -32 -32 -32 -32 -31 -31 -31 -31 -31 -31 -31 -31 -30 -30 -30 -30 -30 -30 -30 -30 -30 -30 -30 -30 -30 -30 -30 -30 -29 -29 -29 -29 -29 -29
-27 -27 -27 -27 -27 -27 -27 -28 -28 -28 -28 -28 -28 -28 -29 -29 -30 -31 -32 -32 -32 -32 -32 -32 -32 -32 -32 -32 -31 -31 -31 -31 -31 -31 -31 -30 -30 -30 -30 -30 -30 -30 -30 -30 -30 -30 -30 -30 -30 -30 -29 -29 -29 -29
-28 -27 -27 -27 -28 -28 -28 -28 -28 -29 -28 -29 -29 -29 -29 -29 -29 -30 -31 -31 -32 -32 -32 -32 -32 -32 -32 -32 -32 -31 -31 -31 -31 -31 -31 -31 -31 -30 -30 -30 -30 -30 -30 -30 -30 -30 -30 -30 -30 -30 -30 -30 -30 -29
-28 -28 -28 -28 -28 -28 -28 -28 -28 -29 -29 -29 -29 -29 -29 -29 -29 -30 -30 -31 -32 -32 -32 -32 -32 -32 -32 -32 -32 -32 -31 -31 -31 -31 -31 -31 -31 -31 -31 -30 -30 -30 -30 -30 -30 -30 -30 -30 -30 -30 -30 -30 -30 -30
-29 -29 -28 -28 -28 -29 -29 -29 -29 -29 -29 -29 -29 -29 -29 -29 -30 -30 -30 -30 -31 -31 -31 -32 -32 -32 -32 -32 -32 -32 -32 -31 -31 -31 -31 -32 -31 -31 -31 -31 -31 -31 -31 -30 -30 -30 -30 -30 -30 -30 -30 -30 -30 -30
-29 -29 -29 -29 -29 -29 -29 -29 -29 -29 -29 -30 -30 -29 -29 -30 -30 -30 -30 -30 -31 -31 -31 -31 -31 -31 -31 -32 -32 -32 -32 -32 -31 -31 -32 -32 -31 -31 -32 -31 -31 -31 -31 -31 -31 -31 -31 -30 -31 -31 -31 -31 -31 -31
-30 -30 -30 -29 -29 -29 -29 -30 -30 -30 -29 -29 -30 -30 -30 -30 -30 -30 -30 -30 -30 -31 -31 -31 -31 -31 -31 -31 -31 -31 -32 -32 -32 -32 -32 -32 -32 -32 -32 -32 -32 -32 -32 -32 -32 -32 -32 -31 -31 -31 -31 -31 -32 -32
-31 -31 -30 -30 -30 -30 -30 -30 -30 -30 -30 -30 -30 -30 -30 -30 -30 -30 -30 -30 -30 -30 -30 -31 -31 -31 -31 -31 -31 -31 -31 -31 -31 -32 -32 -32 -32 -32 -32 -33 -33 -32 -32 -32 -32 -32 -32 -32 -32 -32 -32 -32 -32 -32
-32 -31 -31 -31 -31 -31 -31 -31 -31 -31 -31 -31 -30 -30 -31 -30 -30 -30 -30 -30 -30 -30 -30 -30 -31 -31 -31 -31 -31 -31 -32 -32 -31 -31 -31 -32 -32 -32 -33 -33 -33 -33 -33 -33 -33 -33 -32 -32 -32 -32 -32 -32 -32 -32
-33 -33 -33 -32 -32 -32 -32 -32 -32 -32 -31 -31 -31 -31 -31 -31 -31 -31 -31 -31 -31 -31 -31 -31 -30 -31 -31 -31 -31 -31 -32 -32 -32 -32 -32 -32 -31 -32 -33 -33 -34 -33 -33 -33 -33 -33 -33 -33 -33 -33 -33 -33 -33 -33
Height
5368 5366 5365 5365 5364 5364 5363 5361 5360 5356 5353 5352 5352 5352 5357 5362 5367 5371 5377 5381 5387 5391 5397 5402 5408 5414 5421 5426 5438 5449 5465 5474 5482 5488 5496 5502 5511 5520 5528 5536 5541 5547 5553 5557 5564 5570 5579 5587 5592 5598 5608 5609 5612 5616
5366 5363 5360 5359 5358 5357 5358 5358 5357 5354 5351 5351 5353 5355 5359 5363 5366 5369 5374 5378 5382 5387 5392 5395 5400 5406 5412 5417 5424 5435 5447 5457 5467 5478 5487 5494 5502 5510 5520 5526 5531 5535 5545 5549 5558 5564 5567 5575 5586 5591 5595 5600 5599 5605
5362 5360 5358 5356 5354 5352 5351 5352 5353 5351 5350 5349 5350 5352 5356 5360 5363 5368 5371 5375 5379 5382 5385 5389 5393 5397 5401 5406 5414 5424 5438 5447 5454 5461 5470 5480 5486 5498 5505 5516 5523 5528 5535 5536 5544 5551 5557 5566 5574 5579 5584 5589 5590 5597
5358 5357 5356 5354 5351 5349 5347 5347 5348 5348 5347 5347 5348 5349 5353 5355 5358 5363 5367 5370 5373 5377 5380 5384 5386 5389 5393 5398 5405 5412 5422 5429 5441 5448 5455 5466 5475 5488 5495 5504 5512 5522 5524 5530 5535 5540 5541 5555 5564 5568 5573 5579 5581 5583
5356 5354 5353 5351 5349 5347 5344 5343 5343 5343 5344 5344 5344 5345 5348 5352 5354 5355 5359 5364 5366 5369 5373 5376 5379 5383 5386 5389 5394 5400 5407 5415 5426 5436 5444 5454 5464 5473 5476 5485 5493 5507 5515 5518 5530 5533 5536 5544 5550 5554 5562 5567 5571 5573
5355 5352 5351 5349 5347 5345 5343 5342 5340 5340 5340 5341 5341 5341 5345 5348 5349 5350 5352 5356 5358 5361 5365 5368 5372 5374 5376 5378 5383 5389 5395 5403 5411 5421 5431 5440 5452 5463 5465 5471 5486 5496 5503 5512 5518 5519 5522 5528 5537 5542 5550 5555 5558 5562
5356 5352 5349 5347 5345 5343 5341 5340 5339 5338 5338 5338 5339 5340 5342 5344 5345 5345 5348 5351 5353 5355 5358 5360 5363 5364 5365 5369 5373 5376 5383 5394 5404 5411 5419 5432 5443 5449 5452 5459 5475 5484 5492 5500 5503 5507 5508 5520 5526 5528 5533 5539 5543 5547
5356 5352 5349 5345 5343 5341 5339 5337 5336 5335 5336 5336 5338 5338 5340 5341 5343 5344 5344 5346 5348 5350 5352 5353 5354 5358 5361 5364 5366 5371 5379 5388 5394 5402 5410 5421 5430 5432 5438 5456 5464 5471 5482 5490 5494 5498 5502 5508 5511 5515 5522 5527 5531 5535
5356 5352 5348 5344 5341 5339 5337 5334 5333 5333 5333 5334 5335 5336 5337 5338 5340 5342 5343 5344 5346 5348 5348 5350 5352 5355 5357 5360 5364 5369 5376 5382 5390 5395 5404 5411 5417 5422 5442 5449 5456 5464 5474 5478 5480 5484 5489 5494 5497 5501 5508 5516 5520 5523
5356 5350 5346 5343 5339 5336 5335 5333 5331 5330 5330 5331 5332 5333 5334 5336 5338 5339 5340 5340 5342 5343 5345 5347 5348 5349 5353 5355 5359 5364 5368 5374 5381 5389 5398 5406 5413 5425 5436 5441 5444 5454 5462 5464 5467 5472 5476 5481 5487 5492 5499 5504 5508 5511
5357 5349 5343 5340 5337 5334 5332 5331 5329 5327 5327 5328 5330 5330 5331 5332 5334 5335 5336 5338 5339 5341 5343 5345 5344 5344 5348 5351 5355 5361 5366 5373 5378 5385 5390 5395 5404 5418 5426 5430 5435 5441 5451 5454 5457 5461 5466 5472 5477 5481 5486 5490 5495 5499
5357 5349 5341 5336 5333 5331 5329 5328 5327 5326 5325 5325 5327 5329 5328 5328 5329 5331 5333 5335 5336 5338 5339 5340 5341 5343 5345 5346 5350 5355 5360 5366 5370 5378 5382 5391 5402 5409 5416 5421 5427 5433 5438 5445 5449 5452 5456 5461 5466 5471 5474 5478 5482 5484
5355 5348 5340 5332 5328 5325 5325 5324 5324 5323 5323 5323 5324 5326 5327 5328 5327 5328 5329 5332 5332 5333 5336 5337 5340 5342 5344 5347 5350 5350 5355 5362 5369 5374 5378 5388 5396 5400 5406 5412 5418 5424 5430 5435 5439 5444 5449 5452 5455 5458 5462 5466 5470 5472
5352 5345 5339 5331 5324 5318 5317 5320 5320 5321 5321 5322 5322 5322 5323 5324 5325 5326 5327 5329 5331 5332 5333 5335 5336 5339 5342 5344 5346 5351 5357 5361 5366 5372 5378 5383 5388 5394 5400 5405 5410 5415 5419 5423 5428 5434 5438 5442 5446 5450 5454 5456 5458 5460
5348 5343 5336 5329 5323 5316 5310 5313 5317 5317 5318 5319 5320 5320 5320 5321 5323 5324 5325 5326 5328 5330 5331 5333 5336 5338 5341 5344 5348 5352 5355 5358 5362 5367 5371 5375 5382 5388 5392 5398 5402 5405 5410 5415 5420 5425 5429 5433 5436 5439 5442 5444 5446 5449
5343 5340 5333 5327 5321 5315 5310 5311 5313 5315 5315 5315 5316 5317 5318 5318 5319 5321 5321 5322 5324 5326 5329 5331 5333 5335 5338 5341 5345 5349 5353 5355 5358 5362 5367 5372 5376 5381 5386 5391 5395 5399 5402 5405 5409 5413 5417 5421 5424 5427 5429 5430 5433 5435
5338 5335 5331 5325 5320 5316 5312 5311 5311 5312 5312 5313 5314 5314 5315 5316 5316 5317 5318 5319 5320 5321 5324 5326 5328 5331 5334 5336 5340 5344 5347 5351 5354 5358 5362 5366 5370 5375 5379 5383 5386 5389 5392 5395 5399 5402 5406 5409 5411 5415 5418 5420 5422 5426
5332 5329 5326 5323 5319 5315 5312 5309 5308 5309 5309 5309 5311 5311 5312 5313 5313 5314 5314 5315 5316 5317 5319 5321 5323 5325 5328 5331 5335 5338 5341 5344 5348 5351 5355 5360 5363 5366 5369 5371 5374 5378 5381 5385 5388 5391 5394 5397 5401 5402 5406 5409 5413 5416
5325 5323 5321 5317 5315 5312 5309 5307 5305 5305 5305 5305 5306 5307 5308 5309 5309 5310 5312 5313 5314 5314 5315 5317 5318 5320 5323 5325 5329 5331 5334 5336 5339 5343 5347 5351 5355 5359 5362 5365 5367 5370 5374 5377 5379 5382 5385 5388 5390 5393 5396 5400 5402 5404
5316 5314 5314 5312 5310 5308 5305 5303 5301 5300 5300 5301 5301 5301 5302 5303 5304 5305 5306 5308 5309 5311 5312 5313 5316 5317 5318 5319 5321 5323 5326 5329 5332 5334 5337 5340 5344 5348 5352 5355 5358 5361 5363 5366 5370 5373 5375 5377 5380 5383 5386 5389 5392 5395
5308 5306 5305 5304 5303 5303 5301 5298 5296 5295 5294 5294 5295 5295 5296 5296 5298 5298 5299 5301 5303 5305 5306 5308 5311 5312 5315 5316 5317 5318 5320 5322 5324 5326 5329 5332 5335 5338 5340 5342 5345 5349 5352 5356 5359 5361 5364 5366 5369 5373 5376 5380 5383 5386
5297 5297 5296 5295 5295 5295 5295 5293 5291 5290 5289 5289 5288 5289 5289 5290 5290 5292 5292 5294 5297 5298 5299 5302 5304 5306 5308 5311 5312 5314 5316 5317 5318 5320 5322 5323 5325 5327 5329 5332 5334 5337 5340 5343 5346 5350 5354 5358 5362 5366 5369 5373 5376 5379
5285 5286 5287 5287 5287 5287 5289 5287 5286 5285 5284 5284 5282 5283 5284 5284 5284 5286 5287 5288 5289 5290 5292 5294 5297 5300 5302 5304 5307 5309 5311 5312 5314 5316 5318 5320 5322 5323 5324 5326 5328 5330 5332 5336 5340 5344 5348 5351 5355 5359 5363 5366 5369 5372
5273 5275 5276 5277 5278 5279 5280 5280 5280 5279 5279 5279 5278 5277 5277 5278 5279 5280 5281 5281 5282 5285 5286 5288 5290 5293 5295 5298 5300 5303 5305 5307 5309 5311 5313 5315 5317 5318 5320 5322 5323 5325 5327 5329 5333 5337 5341 5346 5349 5353 5356 5359 5362 5365
5262 5264 5266 5268 5269 5270 5270 5271 5272 5273 5273 5274 5274 5273 5272 5272 5273 5274 5274 5276 5278 5280 5281 5283 5284 5286 5289 5292 5294 5297 5300 5302 5304 5306 5308 5310 5312 5314 5316 5318 5319 5321 5323 5325 5329 5333 5336 5340 5344 5347 5351 5354 5357 5360
5247 5251 5255 5258 5260 5261 5262 5263 5264 5266 5267 5268 5268 5269 5268 5268 5269 5270 5270 5271 5273 5274 5276 5278 5280 5282 5284 5286 5288 5291 5294 5297 5300 5302 5303 5305 5307 5309 5311 5313 5315 5317 5319 5322 5324 5328 5331 5334 5338 5341 5345 5348 5350 5353
5235 5240 5244 5247 5250 5252 5253 5254 5256 5258 5259 5261 5262 5263 5264 5264 5264 5266 5267 5267 5268 5268 5270 5272 5274 5276 5278 5280 5282 5285 5288 5291 5293 5295 5296 5299 5301 5303 5305 5307 5309 5312 5314 5317 5319 5321 5324 5327 5331 5334 5337 5341 5343 5346
5224 5229 5233 5236 5239 5242 5244 5246 5248 5249 5251 5254 5255 5256 5258 5260 5261 5260 5260 5262 5263 5263 5263 5264 5266 5268 5270 5273 5275 5278 5280 5284 5286 5287 5289 5290 5293 5296 5298 5300 5303 5305 5308 5310 5313 5316 5318 5321 5324 5327 5330 5333 5335 5338
5213 5217 5222 5225 5229 5232 5234 5236 5239 5242 5244 5245 5247 5249 5251 5252 5254 5254 5255 5256 5256 5258 5259 5259 5259 5260 5261 5263 5266 5269 5271 5274 5277 5280 5282 5285 5288 5288 5290 5294 5297 5299 5301 5303 5306 5308 5311 5313 5316 5318 5321 5324 5326 5329
5203 5207 5211 5214 5218 5220 5224 5227 5231 5233 5235 5238 5240 5242 5244 5245 5246 5247 5248 5249 5250 5251 5252 5253 5254 5254 5255 5255 5256 5257 5259 5263 5265 5268 5270 5274 5278 5280 5282 5284 5287 5290 5293 5295 5298 5300 5303 5305 5307 5309 5312 5314 5316 5318
5193 5197 5202 5205 5209 5211 5215 5218 5222 5225 5228 5231 5232 5234 5236 5238 5239 5241 5242 5243 5243 5243 5244 5245 5246 5247 5247 5247 5248 5249 5250 5252 5252 5255 5258 5261 5264 5270 5270 5271 5274 5278 5281 5284 5287 5290 5292 5294 5297 5299 5301 5303 5305 5307
5185 5188 5192 5196 5200 5203 5207 5211 5214 5218 5221 5223 5224 5226 5228 5230 5232 5234 5236 5236 5236 5237 5237 5237 5237 5238 5238 5238 5238 5239 5240 5241 5243 5244 5244 5245 5248 5252 5255 5259 5263 5265 5268 5270 5272 5276 5279 5282 5285 5287 5289 5291 5294 5296
5176 5180 5184 5188 5192 5195 5199 5203 5206 5210 5213 5215 5217 5219 5221 5223 5225 5228 5228 5228 5228 5229 5229 5229 5229 5228 5228 5228 5228 5228 5229 5230 5231 5232 5233 5233 5234 5235 5237 5241 5245 5250 5254 5256 5258 5261 5265 5268 5271 5273 5276 5278 5280 5282
Wind_Speed
16 17 18 21 19 17 13 12 11 13 9 7 4 16 24 30 27 30 37 38 41 37 32 33 35 35 36 51 71 71 74 87 78 71 67 67 57 59 63 62 63 59 57 48 62 49 49 48 45 46 41 35 36 40
16 17 19 20 22 20 17 13 9 10 5 6 9 15 22 24 25 24 28 28 26 26 24 25 30 37 37 51 65 78 71 76 74 73 61 66 66 71 69 63 59 62 53 58 52 43 46 51 51 49 47 46 42 44
13 15 17 18 19 19 17 15 8 8 4 5 11 15 25 24 31 29 31 30 29 26 24 22 20 29 42 42 65 74 70 77 72 80 73 70 67 64 68 68 55 58 52 50 53 50 56 46 46 47 50 51 46 41
12 12 14 16 16 14 12 10 6 5 7 6 11 14 24 24 22 27 25 27 27 30 32 29 25 18 34 48 67 79 66 61 71 79 71 54 62 75 74 67 59 57 56 50 50 46 51 43 41 37 38 42 43 50
10 11 11 13 15 14 10 4 7 8 11 8 10 13 22 28 29 35 32 28 26 29 30 31 31 26 26 40 52 72 74 66 72 68 75 70 68 52 53 68 64 65 66 62 60 50 49 47 43 38 38 48 40 45
9 10 11 10 12 14 10 4 6 11 10 7 8 15 17 20 22 28 30 31 30 26 26 28 31 33 37 37 41 64 69 78 78 69 60 51 59 57 47 62 69 56 56 60 58 58 50 54 53 53 55 51 41 46
15 11 11 10 10 12 11 5 6 6 11 10 13 16 12 9 12 18 21 24 27 28 27 25 28 35 37 28 32 65 69 71 69 67 71 53 63 68 53 48 55 56 56 47 50 53 49 47 47 50 50 48 47 45
24 14 11 10 9 9 10 5 5 6 10 13 12 17 16 13 8 11 10 16 20 22 25 25 19 20 28 25 19 51 58 64 70 65 69 68 59 51 48 48 47 50 55 51 55 54 52 53 51 46 47 45 46 49
27 22 16 12 10 8 8 8 4 8 6 12 14 13 15 15 8 7 9 13 16 12 17 10 14 18 17 11 15 31 58 54 53 58 59 60 62 58 45 52 53 49 45 50 47 39 44 44 46 39 33 34 31 28
32 23 20 16 12 10 6 6 6 4 5 6 14 18 15 16 17 15 14 14 14 17 12 8 14 11 11 13 12 26 32 45 37 38 38 51 54 58 48 45 43 56 49 49 51 51 46 38 33 31 27 28 29 31
37 29 21 18 15 12 10 5 5 6 2 8 10 11 15 17 19 17 19 17 18 15 19 17 15 13 13 3 16 25 28 30 36 36 42 34 48 49 45 20 19 49 54 50 32 23 24 25 29 32 31 29 29 32
36 33 26 21 18 16 13 9 5 5 4 6 13 13 9 10 10 22 23 19 19 19 15 12 7 8 9 8 5 25 27 34 31 29 35 29 25 29 25 26 28 20 28 42 38 26 27 26 26 26 27 28 31 33
34 33 29 24 20 18 15 12 7 5 6 7 8 18 14 13 14 10 13 15 15 16 17 14 10 9 7 6 7 21 31 25 35 36 30 34 35 32 33 37 27 32 34 32 28 28 26 25 25 25 28 29 31 31
33 32 31 27 24 22 18 12 8 6 6 6 6 7 13 12 14 17 18 17 13 10 10 11 10 10 8 5 7 13 19 17 20 22 18 23 32 35 33 34 35 36 39 42 40 37 31 29 28 29 30 29 27 28
30 31 29 29 26 18 2 11 9 8 7 6 5 6 6 9 12 14 14 15 15 15 13 13 13 12 11 9 7 7 11 17 16 17 21 24 27 29 31 32 30 30 31 30 30 31 31 30 30 30 31 31 30 28
27 28 27 26 25 20 7 9 9 9 8 7 7 7 6 6 8 10 11 12 14 14 15 18 16 15 15 13 13 13 11 13 17 21 24 24 24 24 27 30 31 32 33 32 32 32 32 31 30 29 25 22 24 25
24 25 25 22 21 16 6 4 8 9 10 9 9 8 8 6 7 8 9 11 12 12 12 15 18 20 20 18 18 18 18 17 18 20 22 26 29 31 31 31 31 30 30 30 30 31 31 29 27 26 25 25 27 31
25 22 21 20 18 15 9 4 9 11 11 11 11 11 10 10 10 7 7 9 10 11 13 14 14 15 19 23 24 24 24 24 24 23 24 26 26 26 25 25 25 26 27 28 28 28 29 28 29 28 29 31 32 31
25 22 20 18 16 14 12 7 7 10 13 14 14 14 13 13 13 13 13 14 14 13 13 14 15 13 12 15 19 22 25 26 26 27 27 28 30 30 30 30 29 28 29 30 31 32 32 32 31 29 29 29 28 28
25 23 21 18 17 14 12 9 8 8 11 14 16 18 17 17 17 18 16 16 18 19 18 18 16 15 13 12 12 14 18 23 26 28 28 29 31 32 32 31 31 31 31 32 32 32 31 30 31 31 31 32 33 33
26 24 22 19 17 16 13 10 10 8 11 13 15 16 17 17 17 17 19 21 20 20 22 22 22 20 17 13 14 14 16 15 15 16 20 23 26 29 31 33 33 34 36 37 36 35 34 34 34 34 34 34 32 30
28 25 24 23 19 16 14 12 9 10 10 10 14 14 14 15 16 17 19 19 20 23 25 25 25 26 25 20 18 17 16 16 17 16 15 16 18 21 24 25 28 30 31 32 32 33 33 33 33 33 32 31 29 28
28 27 24 24 23 20 15 14 11 10 9 10 12 13 14 16 16 15 16 15 17 21 24 27 27 25 25 25 28 24 20 21 18 17 17 16 16 14 15 18 20 23 27 30 31 31 32 31 30 29 28 28 28 28
29 28 25 25 23 23 18 15 13 11 9 9 9 10 13 15 17 14 15 20 19 15 13 16 20 21 22 20 23 21 19 20 18 16 16 17 15 16 16 12 14 15 19 23 26 28 27 28 28 27 26 24 24 25
29 28 27 23 22 24 22 18 15 13 11 10 9 9 9 12 14 15 18 20 19 18 16 15 16 19 21 18 21 23 20 17 16 14 15 17 17 17 22 18 13 15 16 19 22 25 28 28 28 26 26 25 25 24
31 30 28 24 21 22 24 21 18 15 14 12 12 10 9 7 8 8 13 18 18 18 18 19 20 18 17 21 21 23 23 18 17 17 16 14 16 20 19 22 19 16 15 23 27 27 28 29 29 28 27 27 26 25
31 29 27 26 22 19 23 25 22 19 16 15 15 13 12 9 7 3 8 12 18 21 23 23 23 24 22 21 20 23 23 22 22 21 22 21 20 20 22 22 23 26 21 21 25 28 28 29 29 28 28 29 27 25
30 28 27 27 24 22 21 24 25 23 20 16 17 17 14 11 11 14 13 10 10 12 17 24 28 28 27 25 24 23 25 31 18 19 18 19 20 21 22 24 23 23 24 24 29 28 27 26 26 28 29 29 29 28
28 27 28 27 25 24 25 26 26 23 22 22 20 17 15 17 17 17 16 16 15 16 14 13 12 13 19 29 33 32 29 30 37 37 28 20 19 22 25 24 25 26 26 26 26 29 31 33 32 32 32 32 32 32
25 26 26 26 25 25 25 24 24 24 25 23 19 17 17 17 17 18 17 17 17 18 18 19 18 17 16 15 15 19 30 39 38 39 40 39 36 33 35 36 34 32 31 30 30 30 30 30 32 32 33 33 33 33
22 24 25 24 19 17 21 24 25 22 21 21 18 17 18 18 17 16 16 16 17 17 18 20 22 22 22 21 21 20 20 19 24 37 48 45 41 39 33 38 38 38 39 39 37 36 34 34 35 35 35 35 35 34
26 26 24 22 18 21 25 24 22 20 21 22 20 19 20 20 17 14 13 11 10 11 14 16 20 23 24 25 25 25 24 25 24 23 23 31 48 54 48 47 44 41 37 39 41 43 42 42 42 41 40 39 39 38
25 24 24 22 20 23 22 20 20 20 22 24 22 20 21 20 16 12 6 6 8 10 13 17 20 21 23 25 26 26 27 27 27 28 27 27 26 32 48 56 49 49 46 43 41 42 42 43 42 42 42 42 41 40
Wind_Direction
296 289 279 275 277 280 280 296 329 344 330 334 136 159 190 195 205 206 209 218 224 226 222 219 214 215 220 213 207 202 201 208 210 215 221 223 219 222 229 232 238 234 228 225 218 230 239 225 234 228 233 241 245 245
303 303 299 288 285 287 279 277 296 326 320 245 194 182 181 202 211 214 223 218 213 210 212 220 221 219 221 214 207 202 209 206 215 216 222 222 222 231 234 238 242 244 239 235 230 235 236 234 239 240 241 242 250 248
310 307 312 313 302 294 287 274 286 304 262 234 223 206 195 210 209 202 205 215 220 212 222 225 234 229 213 217 204 203 205 210 213 218 217 221 227 223 228 237 241 239 239 244 238 238 232 239 241 237 247 245 249 253
315 315 316 322 324 313 294 283 241 251 202 208 226 206 209 219 215 211 225 229 229 225 231 233 233 241 232 218 209 207 210 208 208 212 215 214 230 229 233 237 235 224 214 218 216 212 217 227 231 231 235 235 247 252
320 322 320 323 328 332 325 274 218 212 204 216 224 225 198 217 234 234 231 224 238 236 243 238 231 240 251 238 221 216 214 210 207 212 217 220 222 216 224 221 222 219 225 224 224 235 240 238 240 247 246 241 250 251
331 326 325 325 326 334 332 290 233 208 206 207 220 187 200 217 218 215 225 230 232 230 239 241 241 240 262 251 236 214 213 213 214 204 206 212 218 224 225 224 217 230 238 241 239 243 251 251 255 258 256 254 251 260
352 331 328 328 326 331 334 312 243 228 216 190 182 179 193 212 230 239 240 234 233 233 241 245 248 252 250 237 236 219 209 213 216 221 220 213 218 220 231 221 229 229 228 239 237 243 243 245 252 255 252 258 254 252
6 349 331 328 326 326 337 323 263 242 225 204 199 187 199 200 197 216 219 223 229 240 246 246 246 234 226 246 253 220 207 211 219 225 228 225 219 219 225 221 232 243 245 240 232 239 244 245 245 254 254 254 247 247
1 358 349 328 323 320 336 324 294 216 228 216 205 202 202 191 186 209 202 201 212 230 227 220 225 241 248 212 217 218 209 198 208 218 223 223 220 233 232 242 235 230 231 235 238 230 235 233 237 227 237 242 248 255
355 349 345 343 330 314 323 323 299 285 226 224 203 212 217 219 215 211 220 219 213 220 214 230 228 234 212 217 210 205 227 214 204 205 206 224 222 229 225 218 215 219 235 216 212 216 209 211 230 235 253 269 280 282
353 347 334 327 327 322 320 303 291 282 219 199 210 216 219 219 222 219 210 222 241 230 222 239 240 180 189 209 193 204 209 213 209 231 223 223 217 218 222 216 227 220 221 226 234 235 237 250 254 271 277 273 271 263
354 352 343 322 307 306 303 310 273 251 247 195 187 200 217 225 219 216 221 221 233 240 228 220 209 194 206 224 207 205 221 229 210 242 244 227 204 212 218 222 225 239 248 240 248 254 254 253 259 260 257 254 255 258
350 352 351 344 318 291 284 289 284 248 222 210 195 203 207 213 218 225 220 211 227 231 222 219 204 197 200 205 213 203 215 214 232 240 227 241 222 224 255 264 260 246 243 234 236 232 233 239 245 250 255 257 258 259
342 349 352 353 343 312 272 252 258 245 231 223 222 209 210 214 212 212 218 226 221 221 223 219 215 223 227 232 170 175 194 195 193 204 213 220 228 232 230 235 236 232 234 235 234 232 232 233 237 240 246 249 252 255
335 341 348 352 357 3 309 206 214 229 236 237 242 241 215 216 218 221 221 221 215 213 219 228 218 214 212 217 216 178 190 198 191 196 208 205 207 210 205 208 213 220 225 227 231 234 235 235 236 239 242 242 246 252
325 332 342 351 355 9 48 177 196 206 225 242 245 253 246 228 219 214 222 224 226 220 220 229 233 230 228 231 227 222 204 206 212 215 214 215 220 221 219 219 222 223 224 227 234 238 240 242 242 243 244 253 260 264
316 323 332 343 353 358 11 209 220 222 220 226 245 253 253 247 234 227 213 212 223 223 211 211 216 225 238 240 239 239 232 222 220 221 224 226 228 231 231 231 231 230 230 231 231 233 235 238 242 248 253 260 269 274
305 309 319 330 343 348 342 277 247 243 235 230 229 238 241 244 241 245 238 223 219 219 218 214 221 225 220 221 227 232 233 233 232 233 236 237 238 240 240 241 240 241 242 243 244 246 249 249 251 255 259 262 263 257
298 295 302 312 324 334 329 305 259 253 247 244 243 240 236 237 243 243 235 228 225 222 219 221 231 233 233 232 222 219 219 221 225 229 231 237 240 240 239 239 239 240 243 243 243 243 243 245 245 246 246 245 245 246
290 288 285 295 302 312 321 314 293 261 248 247 246 251 253 250 245 241 238 235 232 228 225 222 222 225 234 233 229 220 213 212 213 214 219 222 230 236 235 233 230 230 228 231 233 231 231 232 233 235 237 238 239 239
282 284 279 276 285 292 304 311 305 281 252 245 248 248 249 250 248 250 246 234 234 237 239 235 233 236 234 227 229 228 231 231 229 228 227 226 227 226 226 225 224 223 223 224 226 227 229 231 233 234 234 234 233 232
271 277 277 271 267 275 283 291 298 290 273 253 244 242 237 237 239 238 241 239 230 236 236 238 242 244 241 239 244 248 247 243 237 238 239 241 237 241 241 236 231 230 231 231 230 231 232 232 231 230 229 229 228 229
264 266 273 273 267 262 263 271 278 282 284 262 255 250 234 229 235 242 238 233 235 235 235 232 230 232 238 239 241 253 248 239 239 246 251 248 241 260 237 229 229 230 229 229 229 227 226 224 224 224 225 228 230 232
257 261 265 267 270 259 253 257 263 267 271 268 264 257 247 239 234 237 228 226 231 238 239 237 231 228 226 231 229 227 229 233 241 246 249 244 244 238 223 226 229 227 225 224 223 218 213 219 221 223 224 223 223 225
251 255 256 264 268 260 250 246 248 253 255 260 258 256 255 250 242 231 225 227 228 233 235 227 223 222 219 217 213 221 228 235 238 241 244 239 237 234 225 231 234 226 224 214 213 218 220 219 215 214 216 221 223 226
246 247 250 251 265 260 252 245 240 239 242 242 248 250 249 251 258 258 236 228 226 226 230 231 226 225 226 231 233 224 223 229 237 240 242 242 235 235 235 234 229 231 232 235 225 222 220 217 216 219 224 225 221 217
244 245 246 246 251 258 252 246 240 234 233 236 241 245 247 239 230 261 244 240 239 236 233 235 235 237 240 241 239 231 223 224 241 237 244 246 246 242 233 231 232 232 232 243 234 220 217 220 222 223 225 222 220 224
240 240 243 247 248 253 257 250 244 235 229 230 235 239 245 248 233 234 242 240 243 243 240 237 236 239 241 239 238 237 227 220 219 217 235 236 233 238 238 236 235 231 234 237 233 223 219 221 222 224 226 227 230 234
237 235 236 242 244 252 252 243 242 237 224 223 226 233 231 233 238 243 244 244 243 244 246 248 248 250 249 247 240 236 234 230 229 226 218 220 222 230 244 245 242 242 240 238 238 238 237 236 233 231 232 234 237 241
230 230 231 235 243 243 236 229 231 234 233 229 223 228 234 237 240 247 250 248 247 250 252 252 251 251 250 251 252 248 242 235 231 235 240 242 238 242 248 245 246 246 246 248 248 244 242 241 239 239 239 241 243 246
207 213 217 221 229 232 216 215 221 226 232 230 226 233 233 238 238 240 247 250 253 258 261 260 256 253 250 249 253 258 262 258 250 241 237 238 240 227 223 239 242 245 247 248 248 247 247 245 244 244 243 244 246 248
219 222 225 223 220 212 207 210 215 222 229 233 229 233 228 230 226 214 221 242 260 270 275 275 271 265 259 254 252 253 256 260 262 262 259 250 241 236 238 237 235 239 239 249 249 245 244 245 247 248 249 249 249 250
222 218 214 210 210 207 206 211 217 223 230 232 223 221 219 211 204 208 230 273 292 294 294 283 278 275 269 263 260 258 257 257 260 262 262 265 265 255 244 235 235 233 234 238 241 241 245 246 247 249 249 249 250 251